Content
SEND FEEDBACK

Daily
Averages
Monthly
Summary
United States of America

FUTHEYVILLE, MISSISSIPPI


Home > North America > United States > Mississippi
Elevation: 180 feet     Latitude: 33 47N     Longitude: 089 49W

WEATHER
 
SELECT A DAY
Number of Records: 206,651;   Date Range: 1/1/95 - 10/19/14
 
SHARE

PRINT THIS DATA

[ ← Previous Day ]
WEATHER ALMANAC - FEBRUARY 13, 2013
[ Next Day → ]
[ °C ]   °F
Weather ElementAverageHighLow
Temperature43.7 °F46 °F (11:53 am)34 °F (11:53 pm)
Dewpoint40.5 °F45 °F (1:53 am)33.1 °F (11:53 pm)
Humidity88.6 %100 % (1:53 am)76 % (2:53 pm)
Barometer29.96 in30.09 in (10:53 pm)29.80 in (1:53 am)
Wind Speed6.7 mph15 mph (10:31 am)
Wind Gust21.9 mph (10:31 am)
Weather ElementAverage
Visibility9.6 mi
Wind DirectionWSW (232.7 °)

Weather ElementTotal
Precipitation0.01 in
Heating Degree Days25 (Base 65)
Averaged from 37 records on February 13, 2013
WEATHER CONDITIONS BREAKOUT
WIND DIRECTION BREAKOUT
WEATHER BY HOUR - FEBRUARY 13, 2013
[ °C ]   °F
Local TimeTemperatureDewpointHumidityBarometerVisibilityWind DirectionWind SpeedGust SpeedPrecipitationEventsConditions
1:53 AM45.0 °F45.0 °F100 %29.80 in3.0 miWest (260°)6.9 mph0.01 inRainLight Rain
2:53 AM45.0 °F44.1 °F97 %29.82 in9.0 miWSW (250°)4.6 mph0.00 inOvercast
3:22 AM44.6 °F44.6 °F100 %29.83 in10.0 miWest (260°)9.2 mph16.1 mph0.00 inOvercast
3:29 AM44.6 °F44.6 °F100 %29.84 in10.0 miWest (260°)9.2 mph17.3 mph0.00 inOvercast
3:37 AM44.6 °F44.6 °F100 %29.84 in10.0 miWest (260°)6.9 mph17.3 mph0.00 inRainLight Rain
3:49 AM44.6 °F42.8 °F93 %29.85 in10.0 miWest (260°)8.1 mph0.00 inOvercast
3:53 AM45.0 °F43.0 °F93 %29.85 in10.0 miWSW (250°)6.9 mph0.00 inOvercast
4:39 AM44.6 °F42.8 °F93 %29.87 in10.0 miWest (260°)11.5 mph0.00 inOvercast
4:48 AM44.6 °F42.8 °F93 %29.86 in10.0 miWest (260°)8.1 mph0.00 inOvercast
4:53 AM45.0 °F43.0 °F93 %29.87 in10.0 miWest (260°)10.4 mph16.1 mph0.00 inOvercast
5:46 AM44.6 °F42.8 °F93 %29.91 in10.0 miWest (270°)8.1 mph0.00 inOvercast
5:53 AM45.0 °F42.1 °F90 %29.91 in10.0 miWNW (290°)5.8 mph0.00 inOvercast
6:21 AM44.6 °F42.8 °F93 %29.91 in10.0 miWest (280°)6.9 mphOvercast
6:25 AM44.6 °F42.8 °F93 %29.91 in10.0 miWest (280°)5.8 mphOvercast
6:53 AM44.1 °F43.0 °F96 %29.91 in4.0 miWNW (300°)8.1 mph0.00 inRainLight Rain
7:08 AM44.6 °F42.8 °F93 %29.92 in10.0 miWNW (300°)8.1 mphOvercast
7:42 AM44.6 °F42.8 °F93 %29.95 in10.0 miVariable5.8 mphOvercast
7:53 AM44.1 °F41.0 °F89 %29.95 in10.0 miNW (310°)6.9 mphOvercast
8:53 AM44.1 °F41.0 °F89 %29.97 in10.0 miNNW (330°)9.2 mphOvercast
9:00 AM44.6 °F41.0 °F87 %29.97 in10.0 miNW (310°)9.2 mphOvercast
9:20 AM44.6 °F39.2 °F81 %29.99 in10.0 miNW (310°)10.4 mphOvercast
9:53 AM44.1 °F39.9 °F85 %30.01 in10.0 miNW (320°)6.9 mph18.4 mphOvercast
10:31 AM44.6 °F39.2 °F81 %30.02 in10.0 miNW (320°)15.0 mph21.9 mphOvercast
10:53 AM45.0 °F39.0 °F80 %30.02 in10.0 miWNW (290°)9.2 mph17.3 mphOvercast
11:53 AM46.0 °F39.9 °F79 %30.02 in10.0 miNW (310°)8.1 mphOvercast
12:53 PM44.1 °F39.0 °F82 %30.02 in10.0 miNW (320°)10.4 mph17.3 mphOvercast
1:53 PM45.0 °F39.0 °F80 %30.01 in10.0 miNW (320°)10.4 mphOvercast
2:53 PM45.0 °F37.9 °F76 %30.01 in10.0 miNNW (330°)6.9 mphOvercast
3:53 PM45.0 °F37.9 °F76 %30.02 in10.0 miNorth (350°)6.9 mphOvercast
4:53 PM45.0 °F37.9 °F76 %30.03 in10.0 miNorth (350°)4.6 mphOvercast
5:53 PM44.1 °F37.0 °F76 %30.04 in10.0 miCalmOvercast
6:53 PM44.1 °F37.0 °F76 %30.05 in10.0 miCalmOvercast
7:53 PM43.0 °F37.9 °F82 %30.06 in10.0 miSE (140°)4.6 mphOvercast
8:53 PM39.9 °F36.0 °F86 %30.06 in10.0 miCalmClear
9:53 PM37.0 °F35.1 °F93 %30.07 in10.0 miCalmClear
10:53 PM35.1 °F34.0 °F96 %30.09 in10.0 miCalmClear
11:53 PM34.0 °F33.1 °F96 %30.09 in10.0 miCalmClear
Hourly data recorded from KGWO, located miles away from Futheyville, Mississippi







STORIES FROM OUR PARTNERS